Turku Airport

Airport
ICAO code: 
EFTU
IATA Code: 
TKU
Summary
ICAO Region: 
EUR
Territory: 
Location: 
Maaria-Paattinen, Varsinais-Suomi
Serving: 
Turku
Elevation: 
161 ft
Coordinates: 
Aerial View: 
60° 30' 52.992" N, 22° 15' 42.012" E
Metar
Observation
EFTU 261120Z AUTO 23012KT CAVOK 16/04 Q1001
Station
Turku
Date/Time
2022-05-26 11:20:00
Wind direction
230°
Wind speed
12 kts
Lowest cloud amount
clouds and visibility OK
Temperature
16°C
Dew point
4°C
Humidity
44%
QNH
1001 hPa
Weather condition
n/a

Turku Airport, is located in Turku, Finland, 8km north of the centre,[2] in Lentokenttä district in the Maaria-Paattinen ward of Turku.

Climatology

Humid continental climate (Köppen climate classification Dfb

Runways

Designator Length Width Surface Rops
8/26 2500 60 ASP Yes/Yes
Airport map: 
Aerial View: 

Accidents and Serious Incidents at or in the vicinity of EFTU

SKYbrary Partners:

Safety knowledge contributed by: